Pinedale, WY

1:38 AM MDT on May 25, 2017 (GMT -0600)
Wenz

Weather History for KPNA - November, 2012

Change the Weather History Date:

Friday, November 30, 2012

  Actual Average (KBPI) Record (KBPI)
Temperature  
Mean Temperature 32 °F -  
Max Temperature 42 °F 27 °F 51 °F (1995)
Min Temperature 21 °F 3 °F -16 °F (1992)
Degree Days  
Heating Degree Days 34    
Moisture  
Dew Point 28 °F    
Average Humidity 88    
Maximum Humidity 100    
Minimum Humidity 61    
Precipitation  
Precipitation 0.00 in - - ()
Sea Level Pressure  
Sea Level Pressure 29.99 in    
Wind  
Wind Speed 4 mph (ESE)    
Max Wind Speed 13 mph    
Max Gust Speed 16 mph    
Visibility 10 miles    
Events Rain    
Averages and records for this station are not official NWS values.
T = Trace of Precipitation, MM = Missing Value Source: NWS Daily Summary

Daily Weather History Graph

Daily Weather History Graph

Search for Another Location

Airport or City:

Trip Planner

Search our weather history database for the weather conditions in past years. The results will help you decide how hot, cold, wet, or windy it might be!

Date:

Astronomy

Nov. 30, 2012 Rise Set
Actual Time 7:29 AM MST 4:46 PM MST
Civil Twilight 6:58 AM MST 5:18 PM MST
Nautical Twilight 6:22 AM MST 5:53 PM MST
Astronomical Twilight 5:48 AM MST 6:27 PM MST
Moon 6:44 PM MST (11/30) 9:03 AM MST (11/30)
Length of Visible Light 10h 19m
Length of Day
9h 16m
Waning Gibbous, 96% of the Moon is Illuminated
Nov 30
Waning Gibbous
Dec 6
Last Quarter
Dec 13
New
Dec 19
First Quarter
Dec 28
Full

Hourly Weather History & Observations

Time (MST) Temp. Windchill Dew Point Humidity Pressure Visibility Wind Dir Wind Speed Gust Speed Precip Events Conditions
12:15 AM 28.4 °F - 26.6 °F 93% 30.09 in 10.0 mi Calm Calm - N/A   Mostly Cloudy
12:35 AM 26.6 °F 21.2 °F 26.6 °F 100% 30.09 in 10.0 mi West 4.6 mph - N/A   Mostly Cloudy
12:55 AM 26.6 °F 22.6 °F 24.8 °F 93% 30.09 in 10.0 mi WNW 3.5 mph - N/A   Scattered Clouds
1:15 AM 26.6 °F - 24.8 °F 93% 30.08 in 10.0 mi Calm Calm - N/A   Clear
1:35 AM 26.6 °F - 23.0 °F 86% 30.08 in 10.0 mi Calm Calm - N/A   Clear
1:55 AM 23.0 °F 18.4 °F 23.0 °F 100% 30.08 in 10.0 mi West 3.5 mph - N/A   Clear
2:15 AM 23.0 °F - 21.2 °F 93% 30.08 in 7.0 mi Calm Calm - N/A   Clear
2:35 AM 23.0 °F - 23.0 °F 100% 30.08 in 10.0 mi Calm Calm - N/A   Scattered Clouds
2:55 AM 21.2 °F 14.9 °F 21.2 °F 100% 30.07 in 10.0 mi West 4.6 mph - N/A   Mostly Cloudy
3:15 AM 21.2 °F 13.6 °F 21.2 °F 100% 30.08 in 10.0 mi West 5.8 mph - N/A   Mostly Cloudy
3:35 AM 21.2 °F 16.4 °F 21.2 °F 100% 30.06 in 10.0 mi WNW 3.5 mph - N/A   Overcast
3:55 AM 23.0 °F 18.4 °F 23.0 °F 100% 30.05 in 10.0 mi WNW 3.5 mph - N/A   Overcast
4:15 AM 23.0 °F 17.0 °F 23.0 °F 100% 30.05 in 10.0 mi NNW 4.6 mph - N/A   Overcast
4:35 AM 23.0 °F 17.0 °F 21.2 °F 93% 30.05 in 10.0 mi West 4.6 mph - N/A   Mostly Cloudy
4:55 AM 21.2 °F 12.6 °F 21.2 °F 100% 30.04 in 10.0 mi WNW 6.9 mph - N/A   Scattered Clouds
5:15 AM 23.0 °F 17.0 °F 21.2 °F 93% 30.03 in 10.0 mi NW 4.6 mph - N/A   Clear
5:35 AM 21.2 °F 14.9 °F 21.2 °F 100% 30.03 in 10.0 mi NW 4.6 mph - N/A   Scattered Clouds
5:55 AM 23.0 °F - 23.0 °F 100% 30.03 in 10.0 mi Calm Calm - N/A   Mostly Cloudy
6:15 AM 21.2 °F 16.4 °F 21.2 °F 100% 30.03 in 10.0 mi West 3.5 mph - N/A   Mostly Cloudy
6:35 AM 21.2 °F - 21.2 °F 100% 30.03 in 10.0 mi Calm Calm - N/A   Scattered Clouds
6:55 AM 21.2 °F 16.4 °F 21.2 °F 100% 30.03 in 10.0 mi NW 3.5 mph - N/A   Clear
7:15 AM 23.0 °F - 23.0 °F 100% 30.03 in 10.0 mi Calm Calm - N/A   Mostly Cloudy
7:35 AM 23.0 °F - 21.2 °F 93% 30.03 in 10.0 mi Calm Calm - N/A   Scattered Clouds
7:55 AM 23.0 °F - 23.0 °F 100% 30.02 in 10.0 mi Calm Calm - N/A   Mostly Cloudy
8:15 AM 24.8 °F 19.1 °F 23.0 °F 93% 30.03 in 10.0 mi WSW 4.6 mph - N/A   Overcast
8:35 AM 26.6 °F - 24.8 °F 93% 30.01 in 10.0 mi Calm Calm - N/A   Mostly Cloudy
8:55 AM 28.4 °F - 26.6 °F 93% 30.01 in 10.0 mi Calm Calm - N/A   Scattered Clouds
9:15 AM 30.2 °F - 28.4 °F 93% 30.01 in 10.0 mi Calm Calm - N/A   Scattered Clouds
9:35 AM 32.0 °F 28.7 °F 30.2 °F 93% 30.00 in 10.0 mi East 3.5 mph - N/A   Mostly Cloudy
9:55 AM 32.0 °F 28.7 °F 30.2 °F 93% 30.01 in 10.0 mi ESE 3.5 mph - N/A   Overcast
10:15 AM 32.0 °F 26.4 °F 30.2 °F 93% 30.01 in 10.0 mi ESE 5.8 mph - N/A   Overcast
10:35 AM 33.8 °F 28.6 °F 30.2 °F 87% 30.01 in 10.0 mi East 5.8 mph - N/A   Overcast
10:55 AM 33.8 °F 29.6 °F 30.2 °F 87% 30.01 in 10.0 mi ENE 4.6 mph - N/A   Overcast
11:15 AM 33.8 °F 28.6 °F 30.2 °F 87% 30.00 in 10.0 mi East 5.8 mph - N/A   Overcast
11:35 AM 33.8 °F 29.6 °F 30.2 °F 87% 29.99 in 10.0 mi East 4.6 mph - N/A   Overcast
11:55 AM 35.6 °F 31.7 °F 30.2 °F 81% 29.98 in 10.0 mi ESE 4.6 mph - N/A   Overcast
12:15 PM 35.6 °F 30.7 °F 30.2 °F 81% 29.97 in 10.0 mi ESE 5.8 mph - N/A   Overcast
12:35 PM 37.4 °F 32.1 °F 32.0 °F 81% 29.95 in 10.0 mi ESE 6.9 mph - N/A   Overcast
12:55 PM 41.0 °F 35.8 °F 30.2 °F 65% 29.95 in 10.0 mi SE 8.1 mph - N/A   Scattered Clouds
1:15 PM 41.0 °F 33.9 °F 30.2 °F 65% 29.92 in 10.0 mi ESE 12.7 mph - N/A   Mostly Cloudy
1:35 PM 42.8 °F 37.5 °F 30.2 °F 61% 29.93 in 10.0 mi SE 9.2 mph 16.1 mph N/A   Overcast
1:55 PM 41.0 °F 34.3 °F 30.2 °F 65% 29.92 in 10.0 mi SSE 11.5 mph - N/A   Overcast
2:15 PM 41.0 °F 35.8 °F 30.2 °F 65% 29.93 in 10.0 mi South 8.1 mph - N/A   Overcast
2:35 PM 41.0 °F 35.8 °F 30.2 °F 65% 29.92 in 10.0 mi SSE 8.1 mph - N/A   Overcast
2:55 PM 41.0 °F 35.8 °F 30.2 °F 65% 29.93 in 10.0 mi SSE 8.1 mph 11.5 mph N/A   Overcast
3:15 PM 41.0 °F 37.1 °F 30.2 °F 65% 29.93 in 10.0 mi SSE 5.8 mph - N/A   Overcast
3:35 PM 39.2 °F 34.2 °F 30.2 °F 70% 29.93 in 10.0 mi SE 6.9 mph - N/A   Overcast
3:55 PM 39.2 °F 37.0 °F 30.2 °F 70% 29.93 in 10.0 mi ESE 3.5 mph - N/A   Overcast
4:15 PM 37.4 °F 32.1 °F 30.2 °F 75% 29.92 in 10.0 mi East 6.9 mph - N/A   Overcast
4:35 PM 35.6 °F 29.9 °F 30.2 °F 81% 29.93 in 10.0 mi ESE 6.9 mph - N/A   Overcast
4:55 PM 35.6 °F 31.7 °F 30.2 °F 81% 29.92 in 10.0 mi ESE 4.6 mph - N/A   Overcast
5:15 PM 35.6 °F 32.8 °F 30.2 °F 81% 29.93 in 10.0 mi ENE 3.5 mph - N/A   Overcast
5:35 PM 35.6 °F 31.7 °F 30.2 °F 81% 29.92 in 10.0 mi ESE 4.6 mph - N/A   Overcast
5:55 PM 35.6 °F 30.7 °F 30.2 °F 81% 29.92 in 10.0 mi East 5.8 mph - N/A   Overcast
6:15 PM 35.6 °F 31.7 °F 30.2 °F 81% 29.92 in 10.0 mi SSE 4.6 mph - N/A   Overcast
6:35 PM 33.8 °F 30.8 °F 30.2 °F 87% 29.92 in 10.0 mi East 3.5 mph - N/A   Overcast
6:55 PM 33.8 °F 27.7 °F 30.2 °F 87% 29.93 in 10.0 mi ESE 6.9 mph - N/A   Overcast
7:15 PM 33.8 °F 27.7 °F 30.2 °F 87% 29.93 in 10.0 mi ESE 6.9 mph - N/A Rain Light Rain
7:35 PM 33.8 °F 28.6 °F 30.2 °F 87% 29.94 in 10.0 mi ESE 5.8 mph - N/A   Light Drizzle
7:55 PM 33.8 °F 28.6 °F 30.2 °F 87% 29.95 in 10.0 mi East 5.8 mph - N/A Rain Light Rain
8:15 PM 33.8 °F 27.7 °F 30.2 °F 87% 29.95 in 10.0 mi East 6.9 mph - N/A   Overcast
8:35 PM 33.8 °F 29.6 °F 32.0 °F 93% 29.95 in 10.0 mi ENE 4.6 mph - N/A   Overcast
9:15 PM 33.8 °F 28.6 °F 32.0 °F 93% 29.93 in 10.0 mi East 5.8 mph - N/A   Overcast
9:35 PM 33.8 °F 29.6 °F 32.0 °F 93% 29.93 in 10.0 mi East 4.6 mph - N/A   Overcast
9:55 PM 33.8 °F 27.7 °F 32.0 °F 93% 29.93 in 10.0 mi East 6.9 mph - N/A   Overcast
10:15 PM 33.8 °F 28.6 °F 32.0 °F 93% 29.93 in 10.0 mi East 5.8 mph - N/A   Overcast
10:35 PM 33.8 °F 27.7 °F 32.0 °F 93% 29.93 in 10.0 mi SE 6.9 mph - N/A   Overcast
10:55 PM 33.8 °F 28.6 °F 32.0 °F 93% 29.93 in 10.0 mi East 5.8 mph - N/A   Overcast
11:15 PM 33.8 °F 27.0 °F 32.0 °F 93% 29.93 in 10.0 mi East 8.1 mph - N/A   Overcast
11:35 PM 32.0 °F 24.8 °F 32.0 °F 100% 29.93 in 10.0 mi ESE 8.1 mph - N/A   Mostly Cloudy
11:55 PM 33.8 °F 27.7 °F 32.0 °F 93% 29.93 in 10.0 mi SE 6.9 mph - N/A   Overcast